Regional Weather Roundup
Issued by NWS Jackson, KY

Home | Current Version | Previous Version | Text Only | Print | Product List | Glossary On
Versions: 1 2 3 4 5 6 7 8 9 10 11 12 13 14 15 16 17 18 19 20 21 22 23 24 25 26 27 28 29 30 31 32 33 34 35 36 37 38 39 40 41 42 43 44 45 46 47 48 49 50
000
ASUS43 KJKL 200610
RWRJKL

EAST KENTUCKY HOURLY WEATHER ROUNDUP
NATIONAL WEATHER SERVICE JACKSON KY
200 AM EDT SAT SEP 20 2014

NOTE: "FAIR" INDICATES FEW OR NO CLOUDS BELOW 12,000 FEET WITH
NO SIGNIFICANT WEATHER AND/OR OBSTRUCTIONS TO VISIBILITY.

* THESE REPORTS ARE NOT UNDER NWS QUALITY CONTROL AND MAY NOT
  REPORT WEATHER SUCH AS PRECIPITATION AND FOG.

KYZ079-080-083-085-087-088-110-112-115-119-120-200700
...EASTERN KENTUCKY...

CITY           SKY/WX    TMP DP  RH WIND       PRES   REMARKS
JACKSON        CLEAR     66  59  78 SE5       30.13F
6HR MIN TEMP:  65; 6HR MAX TEMP:  70;

LONDON         CLEAR     66  58  75 CALM      30.13S
6HR MIN TEMP:  63; 6HR MAX TEMP:  72;

SOMERSET*      PTCLDY    63  61  94 CALM      30.12S
MONTICELLO*    CLEAR     69  62  78 S7        30.12S
6HR MIN TEMP:  60; 6HR MAX TEMP:  69;

WILLIAMSBURG*  CLEAR     64  63  94 SE5       30.14
MIDDLESBORO*   PTCLDY    62  59  91 W5        30.17S
6HR MIN TEMP:  61; 6HR MAX TEMP:  68;

HARLAN APT*    CLOUDY    66  55  68 MISG      30.18S
HAZARD APT*    MOCLDY    66  59  77 CALM      30.14
BLACK MTN*       N/A     55  54  94 SW2         N/A
PIKEVILLE APT* CLEAR     64  55  72 S3        30.16R
BIG SANDY*     CLEAR     67  57  70 SE8       30.14F
6HR MIN TEMP:  67; 6HR MAX TEMP:  71;

MOREHEAD APT*  PTCLDY    61  59  94 SE5       30.13S
$$

KYZ035-036-041-042-044-050-067-078-099-200700
...CENTRAL KENTUCKY...

CITY           SKY/WX    TMP DP  RH WIND       PRES   REMARKS
MT STERLING*   MOCLDY    59  59 100 S5        30.12S
FLEMING/MASON* MOCLDY    59  57  94 S5        30.11F
DANVILLE*      MOCLDY    57  55  94 CALM      30.11S
RICHMOND*      MOCLDY    61  59  94 CALM      30.10S
LEXINGTON      PTCLDY    63  59  87 SE5       30.10S
6HR MIN TEMP:  63; 6HR MAX TEMP:  73;

FRANKFORT      MOCLDY    57  55  93 MISG      30.08S
6HR MIN TEMP:  56; 6HR MAX TEMP:  66;

$$

KYZ091>093-OHZ055-061-077-WVZ005-015-034-035-042-200700
...SOUTHERN OHIO/WEST VIRGINIA...

CITY           SKY/WX    TMP DP  RH WIND       PRES   REMARKS
COVINGTON      PTCLDY    61  53  75 CALM      30.08F
COLUMBUS       CLEAR     63  53  70 SE3       30.09S
DAYTON         PTCLDY    59  51  75 S7        30.08F
WILMINGTON     CLEAR     59  52  77 S5        30.09F
HUNTINGTON     PTCLDY    64  60  87 SE5       30.11S
CHARLESTON     CLEAR     65  58  78 S6        30.15R
PINEVILLE*     CLEAR     59  59 100 MISG      30.25S FOG
BECKLEY        PTCLDY    60  55  83 SE13G23   30.24S
BLUEFIELD      CLOUDY    63  54  72 VRB3      30.26F
$$

VAZ002-007-008-TNZ017-027-036-066-071-200700
...SOUTHWEST VIRGINIA/EAST TENNESSEE...

CITY           SKY/WX    TMP DP  RH WIND       PRES   REMARKS
WISE*          CLEAR     61  52  72 S10       30.23S
JONESVILLE*    PTCLDY    61  57  88 CALM      30.21S
ABINGDON*      CLEAR     60  57  89 CALM      30.23F
BRISTOL        CLEAR     61  54  77 CALM      30.20S
OAK RIDGE      CLEAR     68  62  81 CALM      30.16R
CROSSVILLE     CLEAR     67  58  72 VRB6      30.17S
NASHVILLE      MOCLDY    70  65  84 S3        30.07S
$$

...KEY TO REMARKS...
VSB - VISIBILITY IN MILES
WCI - WIND CHILL INDEX
HX  - HEAT INDEX

$$



USA.gov is the U.S. government's official web portal to all federal, state and local government web resources and services.